User: anonymous   Login
Location: Unspecified
(0.0000°N, 0.0000°E)
Time: 22:59:43
(UTC+00:00)
Language:

OBJECT NZ - Orbit

View from above orbital plane
View from above orbital plane
View from above satellite
View from above satellite

Ground track
Ground track

The orbit data is extracted from the following two-line orbital elements,

1 43551U 98067NZ  18343.87766856 +.00011999 +00000-0 +16464-3 0  9993
2 43551 051.6376 220.6924 0007160 144.6222 215.5247 15.57775321023282
Epoch (UTC): 09 December 2018 21:03:50
Eccentricity: 0.0007160
inclination: 51.6376°
perigee height: 389 km
apogee height: 399 km
right ascension of ascending node: 220.6924°
argument of perigee: 144.6222°
revolutions per day: 15.57775321
mean anomaly at epoch: 215.5247°
orbit number at epoch: 2328

The dashed part of the orbit path shows where the satellite is in the earth's shadow,  

DLR